Regional Weather Roundup
Issued by NWS

Home | Current Version | Previous Version | Text Only | Print | Product List | Glossary Off
Versions: 1 2 3 4 5 6 7 8 9 10 11 12 13 14 15 16 17 18 19 20 21 22 23 24 25 26 27 28 29 30 31 32 33 34 35 36 37 38 39 40 41 42 43 44 45 46 47 48 49 50

000
ASUS45 KBOI 211910
RWRID
WEATHER ROUNDUP FOR IDAHO
NATIONAL WEATHER SERVICE BOISE ID
100 PM MDT MON JUL 21 2014

NOTE: "FAIR" INDICATES FEW OR NO CLOUDS BELOW 12000 FEET
WITH NO SIGNIFICANT WEATHER AND/OR OBSTRUCTIONS TO VISIBILITY

IDZ012-014-212000-
SOUTHWEST IDAHO


CITY           SKY/WX    TMP DP  RH WIND       PRES   REMARKS
BOISE          CLOUDY    80  53  39 S5        30.04S
CALDWELL       CLOUDY    81  54  39 S8        30.03F
MOUNTAIN HOME  LGT RAIN  68  61  77 NW12      30.06F
$$

IDZ016-017-212000-
SOUTHCENTRAL IDAHO


CITY           SKY/WX    TMP DP  RH WIND       PRES   REMARKS
BURLEY         SUNNY     81  51  35 N8        30.06F
JEROME         MOSUNNY   81  52  36 VRB5      30.09F
TWIN FALLS     RAIN      70  59  68 W3        30.10R
$$

IDZ019>023-212000-
SOUTHEAST IDAHO


CITY           SKY/WX    TMP DP  RH WIND       PRES   REMARKS
IDAHO FALLS    MOSUNNY   83  49  30 SW20      30.10F
POCATELLO      MOSUNNY   83  50  31 W13       30.09F
REXBURG        SUNNY     80  50  34 SW18G25   30.10F
$$

IDZ006-010-011-018-031-032-212000-
CENTRAL IDAHO MOUNTAINS


CITY           SKY/WX    TMP DP  RH WIND       PRES   REMARKS
MCCALL         PTSUNNY   69  44  40 SE10      30.11S
HAILEY         PTSUNNY   73  46  38 CALM      30.15S
STANLEY          N/A     64  46  52 W5        30.22R
SALMON         CLOUDY    75  48  38 S20       29.98S
CHALLIS        CLOUDY    70  47  43 SE8       30.10S
$$

IDZ002-004-006-007-026-212000-
NORTHERN IDAHO


CITY           SKY/WX    TMP DP  RH WIND       PRES   REMARKS
LEWISTON       SUNNY     77  41  27 VRB7      29.99S
LOWELL           N/A     82  48  30 CALM      29.95F
COEUR D`ALENE  PTSUNNY   68  45  42 MISG      30.03R
MULLAN PASS    SUNNY     57  40  52 CALM      30.12R
$$


USA.gov is the U.S. government's official web portal to all federal, state and local government web resources and services.